www.pogodaiklimat.ru

Погода и климат >> Архив погоды >> Мальдивы >> Kadhdhoo


ПОГОДА в Kadhdhoo

  • Прогноз погоды в Kadhdhoo
  • Монитор погоды в Kadhdhoo
  • Климат города

АРХИВ ПОГОДЫ в Kadhdhoo

Время (UTC), дата Ветер
(напр.,м/с)
 
Видим.   Явления Облачность Т
(С)
Тd
(С)
f
(%)
Тe
(С)
Тes
(С)
Комфортность P
(гПа)
Po
(гПа)
Тmin
(С)
Tmax
(С)
R
(мм)
R24
(мм)
S
(см)
15 11.09 З 3 17 км 3/3 540 м
[Cu med, cong Ac trans Ci fib]
+28.4 +24.2 78 +40 +40 очень
душно
1012.7 1012.5
18 11.09 З 3 17 км 3/3 540 м
[Cu med, cong Ac trans Ci fib]
+28.2 +24.9 82 +40 +40 очень
душно
1013.5 1013.3
21 11.09 З 3 17 км 3/3 540 м
[Cu med, cong Ac lent Ci sp]
+27.9 +24.3 81 +39 +39 очень
душно
1011.8 1011.6
00 12.09 З 3 17 км 3/3 540 м
[Cu med, cong Ac lent Ci sp]
+27.8 +24.0 80 +39 +39 очень
душно
1011.3 1011.1
03 12.09 З 3 18 км 3/3 540 м
[Cu med, cong Ac lent Ci sp]
+29.2 +24.3 75 +41 +44 опасность
перегрева
1013.1 1012.9 +27.5
06 12.09 З 3 18 км 5/3 540 м
[Cu med, cong Ac trans Ci sp]
+30.3 +24.7 72 +43 +54 опасность
перегрева
1013.4 1013.2
09 12.09 З 3 18 км 5/3 540 м
[Cb cap Ac trans Ci sp]
+30.6 +24.8 71 +43 +53 опасность
перегрева
1010.4 1010.2
12 12.09 З 3 18 км 6/3 540 м
[Cu med, cong Ci sp]
+30.1 +24.8 73 +43 +44 опасность
перегрева
1009.8 1009.6 +31.1
15 12.09 З 3 18 км 8/3 540 м
[Cu med, cong Ci sp]
+28.6 +24.1 77 +40 +40 очень
душно
1011.4 1011.2
18 12.09 З 3 18 км 8/3 540 м
[Cu med, cong Ci sp]
+28.6 +24.1 77 +40 +40 очень
душно
1011.4 1011.2
21 12.09 З 2 18 км 4/3 540 м
[Cu med, cong Ci sp]
+28.0 +24.0 79 +39 +39 очень
душно
1009.9 1009.7
00 13.09 З 2 17 км 8/3 540 м
[Cu med, cong Ac trans Ci sp]
+28.0 +24.6 82 +40 +40 очень
душно
1010.0 1009.8
03 13.09 З 3 17 км 3/1 540 м
[Cu med, cong Ci sp]
+29.6 +24.3 73 +41 +45 опасность
перегрева
1011.9 1011.7 +27.6
06 13.09 З 2 18 км 3/3 540 м
[Cu med, cong Ci fib]
+31.1 +25.0 70 +45 +59 опасность
перегрева
1012.0 1011.8
09 13.09 З 3 10 км слабый ливневой дождь 4/4 540 м
[Cu med, cong Ci fib]
+30.4 +24.7 72 +43 +53 опасность
перегрева
1009.4 1009.2
12 13.09 З 2 18 км {ливн. осадки} 9/4 540 м
[Cb calv Ci sp]
+29.9 +25.4 77 +44 +45 опасность
перегрева
1009.2 1009.0 +31.8 0.0
15 13.09 З 3 15 км {ливн. осадки} 9/3 540 м
[Cu med, cong Ci sp]
+28.7 +24.5 78 +41 +41 опасность
перегрева
1011.0 1010.8
18 13.09 З 2 15 км {ливн. осадки} 9/3 540 м
[Cu med, cong Ac trans Ci sp]
+28.3 +24.7 81 +40 +40 очень
душно
1011.7 1011.5 0.0
21 13.09 З 3 15 км 8/3 540 м
[Cu med, cong Ac trans Ci sp]
+28.2 +24.5 80 +40 +40 очень
душно
1009.9 1009.7
00 14.09 З 3 15 км 9/3 540 м
[Cu med, cong Ac trans Ci sp]
+27.9 +24.8 83 +40 +40 очень
душно
1010.1 1009.9 0.0
03 14.09 З 2 15 км {ливн. осадки} 9/4 540 м
[Cb cap Ac lent Ci sp]
+29.4 +25.3 79 +43 +45 опасность
перегрева
1011.7 1011.5 +27.3
06 14.09 З 2 12 км слабый ливневой дождь 9/4 540 м
[Cu med, cong Ac trans Ci sp]
+30.0 +25.2 76 +44 +51 опасность
перегрева
1012.3 1012.1 0.0
09 14.09 З 2 18 км {ливн. осадки} 9/3 540 м
[Cu med, cong Ac lent Ci sp]
+31.2 +24.2 66 +43 +50 опасность
перегрева
1009.9 1009.7
12 14.09 нст 1 15 км в посл. час ливневой дождь 9/4 540 м
[Cb calv Ac trans Ci sp]
+26.9 +23.2 80 +36 +37 очень
душно
1009.9 1009.7 +32.2 0.4
15 14.09 З 2 15 км 8/3 540 м
[Cu med, cong Ac trans Ci sp]
+28.4 +24.8 81 +41 +41 опасность
перегрева
1012.1 1011.9
18 14.09 ЮЗ 2 15 км 9/3 540 м
[Cu med, cong Ac trans Ci sp]
+28.1 +24.4 80 +39 +39 очень
душно
1013.1 1012.9
21 14.09 З 3 15 км 9/3 540 м
[Cu med, cong Ac trans Ci sp]
+28.2 +25.1 83 +41 +41 опасность
перегрева
1011.0 1010.8
00 15.09 З 4 10 км в посл. час ливневой дождь 9/5 500 м
[Cb cap Ac As]
+24.4 +24.1 98 +34 +34 очень
душно
1011.1 1010.9 36
03 15.09 З 3 14 км {ливн. осадки} 9/4 500 м
[Cb cap Ac As Ci sp]
+27.0 +24.3 85 +38 +39 очень
душно
1013.0 1012.8 +22.4
06 15.09 З 3 14 км {ливн. осадки} 9/3 500 м
[Cu med, cong Ac As Ci sp]
+29.2 +25.5 80 +43 +50 опасность
перегрева
1012.7 1012.5 0.1
09 15.09 З 3 14 км 9/3 540 м
[Cu med, cong Ac trans Ci sp]
+30.3 +24.7 72 +43 +49 опасность
перегрева
1009.9 1009.7
12 15.09 З 3 12 км 9/3 540 м
[Cb cap Ac trans Cs]
+28.9 +24.5 77 +41 +41 опасность
перегрева
1009.7 1009.5 +30.7 0.1
15 15.09 З 5 10 км в посл. час ливневой дождь 9/4 500 м
[Cb cap Ac As]
+27.1 +24.4 85 +38 +38 очень
душно
1012.2 1012.0

 

Местоположение метеостанции Kadhdhoo (Мальдивы): широта 1.88 долгота 73.50 высота над уровнем моря 2 м.

В архиве по умолчанию представлена погода в Kadhdhoo за последнюю неделю. Архивные данные за месяц целиком и за предыдущие месяцы, начиная с января 2011 года, Вы можете получить, выбрав интересующий диапазон дат из раскрывающегося списка и нажав кнопку "Ввод!".


*Определитесь, кто Вы:
робот инопланетянин человек

Внимание! Время в таблицах - всемирное. Для получения местного времени необходимо прибавить поправку, которая в Kadhdhoo равна 5 ч.

Смотрите также архив погоды в соседних городах и на ближайших метеорологических станциях:

Погода в Kaadedhdhoo (Мальдивы) (166 км)
Погода в Male (Мальдивы) (258 км)
Погода в Gan (Мальдивы) (287 км)
Погода в Hanimaadhoo (Мальдивы) (541 км)
Погода в Minicoy (Lakshadweep, Индия) (715 км)
Погода в Kanyakumari (Tamil Nadu, Индия) (820 км)
Погода в Thiruvananthapuram Air (Kerala, Индия) (827 км)
Погода в Thiruvananthapuram (Kerala, Индия) (828 км)
Погода в Galle (Шри Ланка) (877 км)
Погода в Punalur (Kerala, Индия) (878 км)

Пояснения к столбцам:

Ветер - указаны скорость ветра в м/с - средняя за 10 мин, порывы в срок и между сроками (в фигурных скобках) и направление, откуда дует ветер: С - северный, СВ - северо-восточный, В - восточный, ЮВ - юго-восточный, Ю - южный, ЮЗ - юго-западный, З - западный, СЗ - северо-западный.
Видимость - горизонтальная дальность видимости в метрах или километрах. При видимости от 1 до 10 км при отсутствии осадков обычно наблюдается дымка, при ухудшении видимости до 1 км и менее - туман. В сухую погоду видимость может ухудшаться дымом, пылью или мглою.
Явления - указаны атмосферные явления, наблюдавшиеся в срок или в последний час перед сроком; фигурными скобками обозначены явления, наблюдавшиеся между сроками (за 1-3 часа до срока); квадратными скобками обозначены град или гололедные отложения с указанием их диаметра в мм.
Облачность - указаны через наклонную черту общая и нижняя облачность в баллах и высота нижней границы облаков в метрах; квадратными скобками обозначены формы облаков: Ci - перистые, Cs - перисто-слоистые, Cc - перисто-кучевые, Ac - высококучевые, As - высокослоистые, Sc - слоисто-кучевые, Ns - слоисто-дождевые, Cu - кучевые, Cb - кучево-дождевые. Подробнее классификацию облаков см. в Атласе облаков (PDF).
T - Температура воздуха - температура, измеренная на высоте 2 м над землей.
Td - Температура точки росы - температура, при понижении до которой содержащийся в воздухе водяной пар достигнет насыщения.
f - Относительная влажность воздуха - влажноcть воздуха, измеренная на высоте 2 м над землей.
Te - Эффективная температура - температура, которую ощущает одетый по сезону человек в тени. Характеристика душности погоды. При расчете учитывается влияние влажности воздуха и скорости ветра на теплоощущения человека.
Tes - Эффективная температура на солнце - температура, которую ощущает человек, с поправкой на солнечный нагрев. Характеристика знойности погоды. Зависит от высоты солнца над горизонтом, облачности и скорости ветра. Ночью, в пасмурную погоду, а также при ветре 12 м/с и более поправка равна нулю.
P - Атмосферное давление - приведенное к уровню моря атмосферное давление.
Po - Атмосферное давление - измеренное на уровне метеостанции атмосферное давление.
Tmin - Минимальная температура - минимум температуры воздуха на высоте 2 м над землей.
Tmax - Максимальная температура - максимум температуры воздуха на высоте 2 м над землей.
R - Количество осадков - Количество выпавших осадков за период времени, мм. При наведении курсора мыши на число - период времени, за который выпало указанное количество осадков.
R24 - Количество осадков - Количество выпавших осадков за 24 часа, мм.
S - Снежный покров - Высота снежного покрова, см. При наведении курсора мыши на число - состояние снежного покрова и степень покрытия местности в баллах.